SITRO-AIS 36

Last updated on Thu Nov 21 2024 00:03:40 GMT+0000 (Coordinated Universal Time)

1 59059U 24039J 24325.58715876 .00062174 00000+0 13554-2 0 9998 2 59059 97.4082 288.0383 0014696 37.5210 322.7060 15.43923299 40580
UTC large
Height (km)
Speed (km/s)
/
Latitude / Longitude
Inclination (degrees)
Orbital Period (minutes)
Azimuth
Elevation
Range (km)
Doppler Factor

Next 0 passes for location: London (51.5072 / 0.1276)

Sorry there are no passes over London.